Weather History for Monroe, NC

Change the Weather History Date:

Sunday, March 17, 2013

  Actual Average (KCLT) Record (KCLT)
Temperature  
Mean Temperature 62 °F 52 °F  
Max Temperature 78 °F 63 °F 90 °F (1945)
Min Temperature 48 °F 40 °F 23 °F (1900)
Degree Days  
Heating Degree Days 2 14  
Month to date heating degree days 270  
Since 1 July heating degree days 2969  
Cooling Degree Days 0 0  
Month to date cooling degree days 0  
Year to date cooling degree days 0  
Growing Degree Days 12 (Base 50)    
Moisture  
Dew Point 44 °F    
Average Humidity 54    
Maximum Humidity 77    
Minimum Humidity 33    
Precipitation  
Precipitation 0.00 in 0.13 in 2.00 in (1965)
Month to date precipitation 2.29  
Year to date precipitation 9.02  
Snow  
Snow 0.00 in 0.00 in 5.20 in (1885)
Month to date snowfall 0.4  
Since 1 July snowfall 4.1  
Snow Depth -    
Sea Level Pressure  
Sea Level Pressure 29.95 in    
Wind  
Wind Speed 9 mph (SW)    
Max Wind Speed 17 mph    
Max Gust Speed 22 mph    
Visibility 10 miles    
Events      
T = Trace of Precipitation, MM = Missing Value Source: NWS Daily Summary

Daily Weather History Graph

Daily Weather History Graph

Search for Another Location

Airport:

Trip Planner

Search our weather history database for the weather conditions in past years. The results will help you decide how hot, cold, wet, or windy it might be!

Date:

Astronomy

Mar. 17, 2013 Rise Set
Actual Time 7:30 AM EDT 7:31 PM EDT
Civil Twilight 7:04 AM EDT 7:57 PM EDT
Nautical Twilight 6:35 AM EDT 8:26 PM EDT
Astronomical Twilight 6:05 AM EDT 8:56 PM EDT
Moon 10:54 AM EDT (3/17) 12:26 AM EDT (3/17)
Length of Visible Light 12h 52m
Length of Day
12h 01m
Waxing Crescent, 31% of the Moon is Illuminated
Mar 17
Waxing Crescent
Mar 19
First Quarter
Mar 27
Full
Apr 3
Last Quarter
Apr 10
New

Hourly Weather History & Observations

Time (EDT) Temp. Dew Point Humidity Pressure Visibility Wind Dir Wind Speed Gust Speed Precip Events Conditions
12:53 AM 62.1 °F 37.9 °F 41% 29.88 in 10.0 mi WSW 6.9 mph - N/A   Clear
1:53 AM 60.1 °F 39.0 °F 46% 29.89 in 10.0 mi WSW 9.2 mph - N/A   Clear
2:53 AM 57.9 °F 39.9 °F 51% 29.90 in 10.0 mi WSW 8.1 mph - N/A   Clear
3:53 AM 57.9 °F 39.9 °F 51% 29.90 in 10.0 mi SW 6.9 mph - N/A   Clear
4:53 AM 57.9 °F 39.0 °F 49% 29.89 in 10.0 mi WSW 5.8 mph - N/A   Clear
5:53 AM 57.0 °F 41.0 °F 55% 29.91 in 10.0 mi WSW 6.9 mph - N/A   Clear
6:53 AM 55.0 °F 39.9 °F 57% 29.93 in 10.0 mi WSW 4.6 mph - N/A   Clear
7:53 AM 53.1 °F 41.0 °F 64% 29.94 in 10.0 mi SW 6.9 mph - N/A   Clear
8:53 AM 59.0 °F 43.0 °F 55% 29.96 in 10.0 mi WSW 8.1 mph - N/A   Clear
9:53 AM 61.0 °F 43.0 °F 52% 29.96 in 10.0 mi WSW 12.7 mph - N/A   Clear
10:53 AM 66.0 °F 44.1 °F 45% 29.97 in 10.0 mi WSW 5.8 mph - N/A   Clear
11:53 AM 71.1 °F 45.0 °F 39% 29.97 in 10.0 mi WSW 5.8 mph - N/A   Clear
12:53 PM 73.9 °F 46.0 °F 37% 29.96 in 10.0 mi SW 5.8 mph - N/A   Clear
1:53 PM 75.9 °F 46.9 °F 36% 29.93 in 10.0 mi SW 5.8 mph - N/A   Clear
2:53 PM 77.0 °F 46.0 °F 33% 29.90 in 10.0 mi South 8.1 mph - N/A   Mostly Cloudy
3:53 PM 75.9 °F 46.9 °F 36% 29.89 in 10.0 mi SSW 9.2 mph - N/A   Scattered Clouds
4:25 PM 68.0 °F 53.6 °F 60% 29.88 in 10.0 mi NE 11.5 mph 21.9 mph N/A   Scattered Clouds
4:53 PM 66.9 °F 53.1 °F 61% 29.91 in 10.0 mi NE 16.1 mph - N/A   Mostly Cloudy
5:53 PM 66.0 °F 52.0 °F 60% 29.94 in 10.0 mi NE 13.8 mph 20.7 mph N/A   Mostly Cloudy
6:53 PM 64.0 °F 52.0 °F 65% 29.96 in 10.0 mi NE 12.7 mph - N/A   Partly Cloudy
7:53 PM 60.1 °F 46.9 °F 62% 30.00 in 10.0 mi NE 13.8 mph 21.9 mph N/A   Clear
8:53 PM 55.0 °F 45.0 °F 69% 30.05 in 10.0 mi NE 12.7 mph 20.7 mph N/A   Scattered Clouds
9:53 PM 50.0 °F 42.1 °F 74% 30.09 in 10.0 mi ENE 12.7 mph 21.9 mph N/A   Partly Cloudy
10:53 PM 48.0 °F 41.0 °F 77% 30.11 in 10.0 mi NE 17.3 mph - N/A   Clear
11:53 PM 48.0 °F 39.9 °F 74% 30.11 in 10.0 mi NE 9.2 mph 19.6 mph N/A   Clear